Regional Weather Roundup
Issued by NWS

Home | Current Version | Previous Version | Graphics & Text | Print | Product List | Glossary On
Versions: 1 2 3 4 5 6 7 8 9 10 11 12 13 14 15 16 17 18 19 20 21 22 23 24 25 26 27 28 29 30 31 32 33 34 35 36 37 38 39 40 41 42 43 44 45 46 47 48 49 50
000
ASUS45 KCYS 251410
RWRWY

WYOMING REGIONAL WEATHER ROUNDUP
NATIONAL WEATHER SERVICE CHEYENNE WY
800 AM MDT SAT APR 25 2015

NOTE:  "FAIR" INDICATES FEW OR NO CLOUDS BELOW 12,000 FEET
WITH NO SIGNIFICANT WEATHER AND/OR OBSTRUCTIONS TO VISIBILITY.

WYZ001-251500-
YELLOWSTONE NATIONAL PARK

CITY           SKY/WX    TMP DP  RH WIND       PRES   REMARKS
LK YELLOWSTONE   N/A     29  25  85 VRB6      29.78R WCI  23
W YELLOWSTONE  NOT AVBL

$$
WYZ002>013-054>058-071-098>099-251500-
NORTHERN WYOMING

CITY           SKY/WX    TMP DP  RH WIND       PRES   REMARKS
JACKSON        CLOUDY    36  34  93 S12       29.79R WCI  27
CODY           CLOUDY    37  34  87 N12       29.71S WCI  30
GREYBULL       CLOUDY    42  38  85 W25       29.67R
WORLAND        CLOUDY    46  38  73 N13       29.67R
SHERIDAN       CLOUDY    43  38  82 NW20      29.68R
BUFFALO        CLOUDY    44  41  89 N18G28    29.66R
GILLETTE       FAIR      50  40  68 S20       29.64R
HULETT         FAIR      50  36  57 CALM      29.67S
NEWCASTLE      FAIR      43  37  81 E3        29.69S

$$
WYZ014>020-022>026-101>103-251500-
CENTRAL WYOMING

CITY           SKY/WX    TMP DP  RH WIND       PRES   REMARKS
BIG PINEY      PTSUNNY   34  30  85 CALM      29.80R
PINEDALE       PTSUNNY   34  32  93 W7        29.81R WCI  28
DUBOIS         FAIR      34  28  80 NW15      29.73R WCI  24
LANDER         FAIR      46  35  65 CALM      29.67R
RIVERTON       FAIR      46  35  65 NW5       29.68R
CASPER         FAIR      49  35  58 S13G18    29.69S
DOUGLAS        FAIR      47  41  80 SE3       29.70R

$$
WYZ021-027>030-104>119-251500-
SOUTHERN WYOMING

CITY           SKY/WX    TMP DP  RH WIND       PRES   REMARKS
EVANSTON       FAIR      32  31  96 SW9       29.83S WCI  24
FORT BRIDGER   SUNNY     36  32  87 W13       29.85R WCI  27
ROCK SPRINGS   CLOUDY    37  28  70 W20       29.82S WCI  27
DIXON          CLOUDY    39  36  90 S5        29.87S
RAWLINS        CLOUDY    38  35  89 W18G26    29.80R WCI  28
SARATOGA       CLOUDY    37  34  87 SW18      29.83R WCI  27
LARAMIE        FAIR      44  31  60 SW14      29.78S
CHEYENNE       FAIR      46  32  58 W6        29.75S
TORRINGTON     FAIR      45  42  89 CALM      29.70R
PINE BLUFFS    FAIR      45  36  70 CALM      29.74R

$$


USA.gov is the U.S. government's official web portal to all federal, state and local government web resources and services.